Time,TemperatureF,DewpointF,PressureIn,WindDirection,WindDirectionDegrees,WindSpeedMPH,WindSpeedGustMPH,Humidity,HourlyPrecipIn,Conditions,Clouds,dailyrainin,SoftwareType,DateUTC
2013-02-13 00:00:00,33.4,24.7,29.80,West,276,3.0,4.0,70,0.00,,,0.01,WeatherCatV1.10B1784,2013-02-13 05:00:00,
2013-02-13 00:05:00,33.4,24.3,29.81,West,277,3.0,3.0,69,0.00,,,0.00,WeatherCatV1.10B1784,2013-02-13 05:05:00,
2013-02-13 00:10:00,33.4,24.3,29.81,WSW,250,3.0,8.0,69,0.00,,,0.00,WeatherCatV1.10B1784,2013-02-13 05:10:00,
2013-02-13 00:15:00,33.4,24.3,29.81,West,280,8.0,10.0,69,0.00,,,0.00,WeatherCatV1.10B1784,2013-02-13 05:15:00,
2013-02-13 00:20:00,33.4,24.3,29.80,WSW,245,4.0,8.0,69,0.00,,,0.00,WeatherCatV1.10B1784,2013-02-13 05:20:00,
2013-02-13 00:25:00,33.6,23.8,29.80,West,274,2.0,14.0,67,0.00,,,0.00,WeatherCatV1.10B1784,2013-02-13 05:25:00,
2013-02-13 00:30:00,33.5,23.7,29.80,West,281,5.0,9.0,67,0.00,,,0.00,WeatherCatV1.10B1784,2013-02-13 05:30:00,
2013-02-13 00:35:00,33.4,23.6,29.80,West,262,2.0,7.0,67,0.00,,,0.00,WeatherCatV1.10B1784,2013-02-13 05:35:00,
2013-02-13 00:40:00,33.4,23.6,29.80,WNW,301,2.0,11.0,67,0.00,,,0.00,WeatherCatV1.10B1784,2013-02-13 05:40:00,
2013-02-13 00:45:00,33.3,23.9,29.80,WNW,286,2.0,3.0,68,0.00,,,0.00,WeatherCatV1.10B1784,2013-02-13 05:45:00,
2013-02-13 00:50:00,33.1,23.7,29.80,WNW,298,4.0,8.0,68,0.00,,,0.00,WeatherCatV1.10B1784,2013-02-13 05:50:00,
2013-02-13 00:55:00,33.0,23.6,29.79,NW,321,3.0,4.0,68,0.00,,,0.00,WeatherCatV1.10B1784,2013-02-13 05:55:00,
2013-02-13 01:00:00,33.0,23.3,29.79,NW,306,1.0,2.0,67,0.00,,,0.00,WeatherCatV1.10B1784,2013-02-13 06:00:00,
2013-02-13 01:05:00,32.9,23.5,29.79,WNW,302,3.0,7.0,68,0.00,,,0.00,WeatherCatV1.10B1784,2013-02-13 06:05:00,
2013-02-13 01:10:00,32.8,23.4,29.79,NW,324,3.0,7.0,68,0.00,,,0.00,WeatherCatV1.10B1784,2013-02-13 06:10:00,
2013-02-13 01:15:00,32.6,23.2,29.79,West,262,4.0,4.0,68,0.00,,,0.00,WeatherCatV1.10B1784,2013-02-13 06:15:00,
2013-02-13 01:20:00,32.4,23.0,29.79,West,272,4.0,8.0,68,0.00,,,0.00,WeatherCatV1.10B1784,2013-02-13 06:20:00,
2013-02-13 01:25:00,32.5,23.1,29.79,West,273,0.0,0.0,68,0.00,,,0.00,WeatherCatV1.10B1784,2013-02-13 06:25:00,
2013-02-13 01:30:00,32.3,23.3,29.79,WSW,257,0.0,3.0,69,0.00,,,0.00,WeatherCatV1.10B1784,2013-02-13 06:30:00,
2013-02-13 01:35:00,32.1,23.1,29.79,West,277,1.0,6.0,69,0.00,,,0.00,WeatherCatV1.10B1784,2013-02-13 06:35:00,
2013-02-13 01:40:00,32.1,23.1,29.79,NW,306,0.0,2.0,69,0.00,,,0.00,WeatherCatV1.10B1784,2013-02-13 06:40:00,
2013-02-13 01:45:00,31.8,23.1,29.79,NW,306,4.0,6.0,70,0.00,,,0.00,WeatherCatV1.10B1784,2013-02-13 06:45:00,
2013-02-13 01:50:00,31.7,23.1,29.80,NW,306,5.0,5.0,70,0.00,,,0.00,WeatherCatV1.10B1784,2013-02-13 06:50:00,
2013-02-13 01:55:00,31.8,23.1,29.79,NW,306,0.0,0.0,70,0.00,,,0.00,WeatherCatV1.10B1784,2013-02-13 06:55:00,
2013-02-13 02:00:00,31.7,23.4,29.80,NW,306,0.0,2.0,71,0.00,,,0.00,WeatherCatV1.10B1784,2013-02-13 07:00:00,
2013-02-13 02:05:00,31.5,23.2,29.80,NW,306,0.0,4.0,71,0.00,,,0.00,WeatherCatV1.10B1784,2013-02-13 07:05:00,
2013-02-13 02:10:00,31.4,23.1,29.80,NW,306,0.0,4.0,71,0.00,,,0.00,WeatherCatV1.10B1784,2013-02-13 07:10:00,
2013-02-13 02:15:00,31.4,23.1,29.80,NW,306,3.0,4.0,71,0.00,,,0.00,WeatherCatV1.10B1784,2013-02-13 07:15:00,
2013-02-13 02:20:00,31.2,23.2,29.80,WNW,294,1.0,4.0,72,0.00,,,0.00,WeatherCatV1.10B1784,2013-02-13 07:20:00,
2013-02-13 02:25:00,31.2,23.2,29.80,West,278,1.0,4.0,72,0.00,,,0.00,WeatherCatV1.10B1784,2013-02-13 07:25:00,
2013-02-13 02:30:00,31.2,23.2,29.80,WNW,290,1.0,3.0,72,0.00,,,0.00,WeatherCatV1.10B1784,2013-02-13 07:30:00,
2013-02-13 02:35:00,31.2,23.2,29.80,WNW,292,3.0,3.0,72,0.00,,,0.00,WeatherCatV1.10B1784,2013-02-13 07:35:00,
2013-02-13 02:40:00,31.2,23.2,29.80,WNW,292,0.0,2.0,72,0.00,,,0.00,WeatherCatV1.10B1784,2013-02-13 07:40:00,
2013-02-13 02:45:00,31.1,23.5,29.80,WNW,292,0.0,5.0,73,0.00,,,0.00,WeatherCatV1.10B1784,2013-02-13 07:45:00,
2013-02-13 02:50:00,31.1,23.5,29.80,WNW,292,0.0,3.0,73,0.00,,,0.00,WeatherCatV1.10B1784,2013-02-13 07:50:00,
2013-02-13 02:55:00,31.1,23.5,29.80,WNW,292,0.0,1.0,73,0.00,,,0.00,WeatherCatV1.10B1784,2013-02-13 07:55:00,
2013-02-13 03:00:00,31.1,23.5,29.80,WNW,292,0.0,1.0,73,0.00,,,0.00,WeatherCatV1.10B1784,2013-02-13 08:00:00,
2013-02-13 03:05:00,31.0,23.7,29.81,WNW,292,0.0,4.0,74,0.00,,,0.00,WeatherCatV1.10B1784,2013-02-13 08:05:00,
2013-02-13 03:10:00,31.2,23.9,29.81,WNW,288,5.0,6.0,74,0.00,,,0.00,WeatherCatV1.10B1784,2013-02-13 08:10:00,
2013-02-13 03:15:00,31.4,23.8,29.81,WNW,284,1.0,6.0,73,0.00,,,0.00,WeatherCatV1.10B1784,2013-02-13 08:15:00,
2013-02-13 03:20:00,31.5,23.9,29.80,WSW,237,0.0,10.0,73,0.00,,,0.00,WeatherCatV1.10B1784,2013-02-13 08:20:00,
2013-02-13 03:25:00,31.6,24.0,29.81,WNW,286,3.0,5.0,73,0.00,,,0.00,WeatherCatV1.10B1784,2013-02-13 08:25:00,
2013-02-13 03:30:00,31.7,24.1,29.81,WNW,289,0.0,3.0,73,0.00,,,0.00,WeatherCatV1.10B1784,2013-02-13 08:30:00,
2013-02-13 03:32:00,31.7,24.1,29.81,WNW,288,5.0,5.0,73,0.00,,,0.00,WeatherCatV1.10B1784,2013-02-13 08:32:00,
2013-02-13 03:37:00,31.9,24.2,29.82,West,277,3.0,6.0,73,0.00,,,0.00,WeatherCatV1.10B1784,2013-02-13 08:37:00,
2013-02-13 03:42:00,32.0,24.3,29.82,WNW,286,0.0,0.0,73,0.00,,,0.00,WeatherCatV1.10B1784,2013-02-13 08:42:00,
2013-02-13 03:47:00,32.1,24.4,29.82,WNW,288,2.0,9.0,73,0.00,,,0.00,WeatherCatV1.10B1784,2013-02-13 08:47:00,
2013-02-13 03:52:00,32.2,24.5,29.81,WNW,284,0.0,3.0,73,0.00,,,0.00,WeatherCatV1.10B1784,2013-02-13 08:52:00,
2013-02-13 03:57:00,32.1,24.1,29.81,West,281,1.0,6.0,72,0.00,,,0.00,WeatherCatV1.10B1784,2013-02-13 08:57:00,
2013-02-13 04:02:00,32.0,24.0,29.81,WNW,290,0.0,7.0,72,0.00,,,0.00,WeatherCatV1.10B1784,2013-02-13 09:02:00,
2013-02-13 04:07:00,31.9,23.9,29.81,WSW,257,4.0,7.0,72,0.00,,,0.00,WeatherCatV1.10B1784,2013-02-13 09:07:00,
2013-02-13 04:12:00,31.9,23.9,29.81,SW,225,1.0,6.0,72,0.00,,,0.00,WeatherCatV1.10B1784,2013-02-13 09:12:00,
2013-02-13 04:17:00,31.8,23.8,29.82,SW,234,0.0,6.0,72,0.00,,,0.00,WeatherCatV1.10B1784,2013-02-13 09:17:00,
2013-02-13 04:22:00,31.7,23.7,29.81,West,279,3.0,4.0,72,0.00,,,0.00,WeatherCatV1.10B1784,2013-02-13 09:22:00,
2013-02-13 04:27:00,31.6,24.0,29.81,West,274,0.0,1.0,73,0.00,,,0.00,WeatherCatV1.10B1784,2013-02-13 09:27:00,
2013-02-13 04:32:00,31.5,23.9,29.81,WNW,301,0.0,8.0,73,0.00,,,0.00,WeatherCatV1.10B1784,2013-02-13 09:32:00,
2013-02-13 04:37:00,31.6,24.0,29.81,SW,226,7.0,13.0,73,0.00,,,0.00,WeatherCatV1.10B1784,2013-02-13 09:37:00,
2013-02-13 04:42:00,31.5,23.9,29.81,WNW,300,2.0,3.0,73,0.00,,,0.00,WeatherCatV1.10B1784,2013-02-13 09:42:00,
2013-02-13 04:47:00,31.6,24.0,29.81,WSW,257,3.0,6.0,73,0.00,,,0.00,WeatherCatV1.10B1784,2013-02-13 09:47:00,
2013-02-13 04:52:00,31.6,24.0,29.81,West,277,3.0,8.0,73,0.00,,,0.00,WeatherCatV1.10B1784,2013-02-13 09:52:00,
2013-02-13 04:57:00,31.6,24.0,29.81,WSW,252,2.0,10.0,73,0.00,,,0.00,WeatherCatV1.10B1784,2013-02-13 09:57:00,
2013-02-13 05:02:00,31.5,23.9,29.81,West,279,0.0,5.0,73,0.00,,,0.00,WeatherCatV1.10B1784,2013-02-13 10:02:00,
2013-02-13 05:07:00,31.6,23.6,29.81,NNW,327,2.0,5.0,72,0.00,,,0.00,WeatherCatV1.10B1784,2013-02-13 10:07:00,
2013-02-13 05:12:00,31.5,23.5,29.81,West,267,1.0,7.0,72,0.00,,,0.00,WeatherCatV1.10B1784,2013-02-13 10:12:00,
2013-02-13 05:17:00,31.3,23.3,29.82,West,267,0.0,3.0,72,0.00,,,0.00,WeatherCatV1.10B1784,2013-02-13 10:17:00,
2013-02-13 05:22:00,31.4,23.4,29.82,WNW,290,2.0,4.0,72,0.00,,,0.00,WeatherCatV1.10B1784,2013-02-13 10:22:00,
2013-02-13 05:27:00,31.3,23.3,29.82,WSW,257,4.0,5.0,72,0.00,,,0.00,WeatherCatV1.10B1784,2013-02-13 10:27:00,
2013-02-13 05:32:00,31.3,23.3,29.82,NW,318,3.0,7.0,72,0.00,,,0.00,WeatherCatV1.10B1784,2013-02-13 10:32:00,
2013-02-13 05:37:00,31.3,23.3,29.81,NW,311,0.0,4.0,72,0.00,,,0.00,WeatherCatV1.10B1784,2013-02-13 10:37:00,
2013-02-13 05:42:00,31.2,23.2,29.81,NW,308,0.0,4.0,72,0.00,,,0.00,WeatherCatV1.10B1784,2013-02-13 10:42:00,
2013-02-13 05:47:00,31.1,23.5,29.81,NW,315,0.0,3.0,73,0.00,,,0.00,WeatherCatV1.10B1784,2013-02-13 10:47:00,
2013-02-13 05:52:00,30.9,23.3,29.81,WNW,299,0.0,3.0,73,0.00,,,0.00,WeatherCatV1.10B1784,2013-02-13 10:52:00,
2013-02-13 05:57:00,30.8,23.2,29.81,WNW,299,1.0,3.0,73,0.00,,,0.00,WeatherCatV1.10B1784,2013-02-13 10:57:00,
2013-02-13 06:02:00,30.6,23.0,29.81,WNW,299,0.0,1.0,73,0.00,,,0.00,WeatherCatV1.10B1784,2013-02-13 11:02:00,
2013-02-13 06:07:00,30.6,23.3,29.81,WNW,299,0.0,4.0,74,0.00,,,0.00,WeatherCatV1.10B1784,2013-02-13 11:07:00,
2013-02-13 06:12:00,30.4,23.1,29.81,WNW,299,0.0,0.0,74,0.00,,,0.00,WeatherCatV1.10B1784,2013-02-13 11:12:00,
2013-02-13 06:17:00,30.2,22.9,29.81,WNW,299,0.0,0.0,74,0.00,,,0.00,WeatherCatV1.10B1784,2013-02-13 11:17:00,
2013-02-13 06:22:00,30.2,22.9,29.81,WNW,299,0.0,0.0,74,0.00,,,0.00,WeatherCatV1.10B1784,2013-02-13 11:22:00,
2013-02-13 06:27:00,30.1,22.8,29.82,WNW,299,0.0,0.0,74,0.00,,,0.00,WeatherCatV1.10B1784,2013-02-13 11:27:00,
2013-02-13 06:32:00,29.9,22.6,29.82,WNW,299,0.0,2.0,74,0.00,,,0.00,WeatherCatV1.10B1784,2013-02-13 11:32:00,
2013-02-13 06:37:00,29.6,22.7,29.82,WNW,299,0.0,0.0,75,0.00,,,0.00,WeatherCatV1.10B1784,2013-02-13 11:37:00,
2013-02-13 06:42:00,29.5,22.6,29.82,WNW,299,0.0,4.0,75,0.00,,,0.00,WeatherCatV1.10B1784,2013-02-13 11:42:00,
2013-02-13 06:47:00,29.7,22.8,29.82,WNW,299,0.0,0.0,75,0.00,,,0.00,WeatherCatV1.10B1784,2013-02-13 11:47:00,
2013-02-13 06:52:00,29.7,22.8,29.82,WNW,299,0.0,0.0,75,0.00,,,0.00,WeatherCatV1.10B1784,2013-02-13 11:52:00,
2013-02-13 06:57:00,29.9,23.0,29.82,WNW,299,0.0,2.0,75,0.00,,,0.00,WeatherCatV1.10B1784,2013-02-13 11:57:00,
2013-02-13 07:02:00,30.1,22.8,29.82,WNW,299,4.0,4.0,74,0.00,,,0.00,WeatherCatV1.10B1784,2013-02-13 12:02:00,
2013-02-13 07:07:00,30.3,23.0,29.82,WNW,299,0.0,1.0,74,0.00,,,0.00,WeatherCatV1.10B1784,2013-02-13 12:07:00,
2013-02-13 07:12:00,30.4,23.1,29.82,WNW,299,0.0,1.0,74,0.00,,,0.00,WeatherCatV1.10B1784,2013-02-13 12:12:00,
2013-02-13 07:17:00,30.4,23.1,29.82,WNW,299,0.0,0.0,74,0.00,,,0.00,WeatherCatV1.10B1784,2013-02-13 12:17:00,
2013-02-13 07:22:00,30.5,23.2,29.82,WNW,299,0.0,1.0,74,0.00,,,0.00,WeatherCatV1.10B1784,2013-02-13 12:22:00,
2013-02-13 07:27:00,30.7,23.4,29.82,WNW,299,0.0,0.0,74,0.00,,,0.00,WeatherCatV1.10B1784,2013-02-13 12:27:00,
2013-02-13 07:32:00,30.7,23.4,29.82,WNW,299,0.0,0.0,74,0.00,,,0.00,WeatherCatV1.10B1784,2013-02-13 12:32:00,
2013-02-13 07:37:00,30.7,23.4,29.82,WNW,299,0.0,0.0,74,0.00,,,0.00,WeatherCatV1.10B1784,2013-02-13 12:37:00,
2013-02-13 07:42:00,31.0,23.7,29.82,WNW,299,3.0,4.0,74,0.00,,,0.00,WeatherCatV1.10B1784,2013-02-13 12:42:00,
2013-02-13 07:47:00,31.4,23.8,29.82,West,267,0.0,4.0,73,0.00,,,0.00,WeatherCatV1.10B1784,2013-02-13 12:47:00,
2013-02-13 07:52:00,31.6,23.6,29.82,West,267,0.0,1.0,72,0.00,,,0.00,WeatherCatV1.10B1784,2013-02-13 12:52:00,
2013-02-13 07:57:00,31.7,23.7,29.82,West,274,2.0,4.0,72,0.00,,,0.00,WeatherCatV1.10B1784,2013-02-13 12:57:00,
2013-02-13 08:02:00,32.2,24.2,29.82,WSW,257,2.0,3.0,72,0.00,,,0.00,WeatherCatV1.10B1784,2013-02-13 13:02:00,
2013-02-13 08:07:00,32.4,24.1,29.82,NW,323,0.0,2.0,71,0.00,,,0.00,WeatherCatV1.10B1784,2013-02-13 13:07:00,
2013-02-13 08:12:00,32.7,24.0,29.82,NNW,339,3.0,6.0,70,0.00,,,0.00,WeatherCatV1.10B1784,2013-02-13 13:12:00,
2013-02-13 08:17:00,32.9,24.2,29.82,WNW,284,2.0,3.0,70,0.00,,,0.00,WeatherCatV1.10B1784,2013-02-13 13:17:00,
2013-02-13 08:22:00,33.2,24.5,29.82,West,281,1.0,3.0,70,0.00,,,0.00,WeatherCatV1.10B1784,2013-02-13 13:22:00,
2013-02-13 08:27:00,33.3,24.6,29.83,NW,319,3.0,7.0,70,0.00,,,0.00,WeatherCatV1.10B1784,2013-02-13 13:27:00,
2013-02-13 08:32:00,33.4,24.3,29.82,NNW,335,4.0,7.0,69,0.00,,,0.00,WeatherCatV1.10B1784,2013-02-13 13:32:00,
2013-02-13 08:37:00,33.4,24.3,29.82,NNW,345,0.0,5.0,69,0.00,,,0.00,WeatherCatV1.10B1784,2013-02-13 13:37:00,
2013-02-13 08:42:00,33.5,24.4,29.83,North,355,1.0,3.0,69,0.00,,,0.00,WeatherCatV1.10B1784,2013-02-13 13:42:00,
2013-02-13 08:47:00,33.7,24.3,29.83,West,277,3.0,5.0,68,0.00,,,0.00,WeatherCatV1.10B1784,2013-02-13 13:47:00,
2013-02-13 08:52:00,33.9,24.5,29.83,NW,310,6.0,6.0,68,0.00,,,0.00,WeatherCatV1.10B1784,2013-02-13 13:52:00,
2013-02-13 08:57:00,34.0,24.6,29.83,NNW,346,5.0,8.0,68,0.00,,,0.00,WeatherCatV1.10B1784,2013-02-13 13:57:00,
2013-02-13 09:02:00,34.1,24.7,29.83,NW,315,1.0,6.0,68,0.00,,,0.00,WeatherCatV1.10B1784,2013-02-13 14:02:00,
2013-02-13 09:07:00,34.2,24.8,29.83,WNW,303,3.0,3.0,68,0.00,,,0.00,WeatherCatV1.10B1784,2013-02-13 14:07:00,
2013-02-13 09:12:00,34.3,24.9,29.83,NW,312,2.0,5.0,68,0.00,,,0.00,WeatherCatV1.10B1784,2013-02-13 14:12:00,
2013-02-13 09:17:00,34.3,24.9,29.83,NNE,29,4.0,7.0,68,0.00,,,0.00,WeatherCatV1.10B1784,2013-02-13 14:17:00,
2013-02-13 09:22:00,34.3,24.5,29.83,NW,308,7.0,10.0,67,0.00,,,0.00,WeatherCatV1.10B1784,2013-02-13 14:22:00,
2013-02-13 09:27:00,34.6,24.8,29.83,NW,308,2.0,3.0,67,0.00,,,0.00,WeatherCatV1.10B1784,2013-02-13 14:27:00,
2013-02-13 09:32:00,34.7,24.5,29.83,WNW,300,0.0,7.0,66,0.00,,,0.00,WeatherCatV1.10B1784,2013-02-13 14:32:00,
2013-02-13 09:37:00,34.3,24.5,29.83,WNW,299,0.0,5.0,67,0.00,,,0.00,WeatherCatV1.10B1784,2013-02-13 14:37:00,
2013-02-13 09:42:00,34.1,24.7,29.82,WNW,299,1.0,3.0,68,0.00,,,0.00,WeatherCatV1.10B1784,2013-02-13 14:42:00,
2013-02-13 09:47:00,34.2,24.8,29.82,WNW,290,4.0,5.0,68,0.00,,,0.00,WeatherCatV1.10B1784,2013-02-13 14:47:00,
2013-02-13 09:52:00,34.4,24.6,29.82,WSW,257,1.0,7.0,67,0.00,,,0.00,WeatherCatV1.10B1784,2013-02-13 14:52:00,
2013-02-13 09:57:00,34.4,24.6,29.82,West,272,0.0,5.0,67,0.00,,,0.00,WeatherCatV1.10B1784,2013-02-13 14:57:00,
2013-02-13 10:02:00,34.7,24.9,29.82,WNW,286,1.0,6.0,67,0.00,,,0.00,WeatherCatV1.10B1784,2013-02-13 15:02:00,
2013-02-13 10:07:00,35.2,25.0,29.82,West,281,5.0,5.0,66,0.00,,,0.00,WeatherCatV1.10B1784,2013-02-13 15:07:00,
2013-02-13 10:12:00,35.3,24.7,29.82,WNW,283,2.0,6.0,65,0.00,,,0.00,WeatherCatV1.10B1784,2013-02-13 15:12:00,
2013-02-13 10:17:00,35.3,25.1,29.81,WSW,243,3.0,6.0,66,0.00,,,0.00,WeatherCatV1.10B1784,2013-02-13 15:17:00,
2013-02-13 10:22:00,35.5,25.3,29.81,West,273,0.0,1.0,66,0.00,,,0.00,WeatherCatV1.10B1784,2013-02-13 15:22:00,
2013-02-13 10:27:00,35.8,25.2,29.81,West,273,2.0,2.0,65,0.00,,,0.00,WeatherCatV1.10B1784,2013-02-13 15:27:00,
2013-02-13 10:32:00,35.7,25.1,29.81,West,275,3.0,3.0,65,0.00,,,0.00,WeatherCatV1.10B1784,2013-02-13 15:32:00,
2013-02-13 10:37:00,35.8,25.2,29.81,West,271,1.0,5.0,65,0.00,,,0.00,WeatherCatV1.10B1784,2013-02-13 15:37:00,
2013-02-13 10:42:00,36.1,25.1,29.80,WSW,249,5.0,7.0,64,0.00,,,0.00,WeatherCatV1.10B1784,2013-02-13 15:42:00,
2013-02-13 10:47:00,36.0,25.0,29.80,WSW,257,2.0,5.0,64,0.00,,,0.00,WeatherCatV1.10B1784,2013-02-13 15:47:00,
2013-02-13 10:52:00,35.6,24.6,29.80,West,267,2.0,3.0,64,0.00,,,0.00,WeatherCatV1.10B1784,2013-02-13 15:52:00,
2013-02-13 10:57:00,35.8,24.8,29.80,West,271,3.0,5.0,64,0.00,,,0.00,WeatherCatV1.10B1784,2013-02-13 15:57:00,
2013-02-13 11:02:00,36.0,25.0,29.80,SW,226,0.0,6.0,64,0.00,,,0.00,WeatherCatV1.10B1784,2013-02-13 16:02:00,
2013-02-13 11:07:00,36.6,24.8,29.80,West,276,5.0,5.0,62,0.00,,,0.00,WeatherCatV1.10B1784,2013-02-13 16:07:00,
2013-02-13 11:12:00,37.0,25.6,29.80,West,277,0.0,3.0,63,0.00,,,0.00,WeatherCatV1.10B1784,2013-02-13 16:12:00,
2013-02-13 11:17:00,37.3,25.1,29.80,SW,235,3.0,8.0,61,0.00,,,0.00,WeatherCatV1.10B1784,2013-02-13 16:17:00,
2013-02-13 11:22:00,37.1,24.9,29.80,SW,230,1.0,9.0,61,0.00,,,0.00,WeatherCatV1.10B1784,2013-02-13 16:22:00,
2013-02-13 11:27:00,37.2,25.4,29.80,WSW,257,2.0,2.0,62,0.00,,,0.00,WeatherCatV1.10B1784,2013-02-13 16:27:00,
2013-02-13 11:32:00,38.1,25.9,29.80,West,262,0.0,1.0,61,0.00,,,0.00,WeatherCatV1.10B1784,2013-02-13 16:32:00,
2013-02-13 11:37:00,37.8,24.8,29.80,West,273,0.0,4.0,59,0.00,,,0.00,WeatherCatV1.10B1784,2013-02-13 16:37:00,
2013-02-13 11:42:00,37.2,24.6,29.80,West,271,0.0,5.0,60,0.00,,,0.00,WeatherCatV1.10B1784,2013-02-13 16:42:00,
2013-02-13 11:47:00,37.6,25.0,29.80,SW,236,7.0,11.0,60,0.00,,,0.00,WeatherCatV1.10B1784,2013-02-13 16:47:00,
2013-02-13 11:52:00,37.8,25.6,29.80,SW,230,2.0,8.0,61,0.00,,,0.00,WeatherCatV1.10B1784,2013-02-13 16:52:00,
2013-02-13 11:57:00,37.8,25.2,29.79,WSW,246,0.0,4.0,60,0.00,,,0.00,WeatherCatV1.10B1784,2013-02-13 16:57:00,
2013-02-13 12:02:00,37.7,25.1,29.79,NW,311,0.0,4.0,60,0.00,,,0.00,WeatherCatV1.10B1784,2013-02-13 17:02:00,
2013-02-13 12:07:00,37.8,25.2,29.79,NW,311,2.0,3.0,60,0.00,,,0.00,WeatherCatV1.10B1784,2013-02-13 17:07:00,
2013-02-13 12:12:00,37.6,25.4,29.79,NW,309,2.0,4.0,61,0.00,,,0.00,WeatherCatV1.10B1784,2013-02-13 17:12:00,
2013-02-13 12:17:00,37.6,25.4,29.79,NW,309,1.0,5.0,61,0.00,,,0.00,WeatherCatV1.10B1784,2013-02-13 17:17:00,
2013-02-13 12:22:00,37.5,25.3,29.79,SW,235,2.0,7.0,61,0.00,,,0.00,WeatherCatV1.10B1784,2013-02-13 17:22:00,
2013-02-13 12:27:00,37.0,24.4,29.79,SW,223,1.0,6.0,60,0.00,,,0.00,WeatherCatV1.10B1784,2013-02-13 17:27:00,
2013-02-13 12:32:00,37.0,24.8,29.78,SW,223,0.0,0.0,61,0.00,,,0.00,WeatherCatV1.10B1784,2013-02-13 17:32:00,
2013-02-13 12:37:00,37.5,26.1,29.78,South,176,2.0,5.0,63,0.00,,,0.00,WeatherCatV1.10B1784,2013-02-13 17:37:00,
2013-02-13 12:42:00,38.2,25.2,29.78,SW,224,0.0,4.0,59,0.00,,,0.00,WeatherCatV1.10B1784,2013-02-13 17:42:00,
2013-02-13 12:47:00,38.9,25.4,29.78,SW,234,1.0,6.0,58,0.00,,,0.00,WeatherCatV1.10B1784,2013-02-13 17:47:00,
2013-02-13 12:52:00,39.5,25.1,29.78,NNW,341,3.0,3.0,56,0.00,,,0.00,WeatherCatV1.10B1784,2013-02-13 17:52:00,
2013-02-13 12:57:00,39.8,25.0,29.78,NW,321,2.0,5.0,55,0.00,,,0.00,WeatherCatV1.10B1784,2013-02-13 17:57:00,
2013-02-13 13:02:00,39.7,24.9,29.78,WNW,294,2.0,6.0,55,0.00,,,0.00,WeatherCatV1.10B1784,2013-02-13 18:02:00,
2013-02-13 13:07:00,39.6,24.8,29.77,West,267,1.0,1.0,55,0.00,,,0.00,WeatherCatV1.10B1784,2013-02-13 18:07:00,
2013-02-13 13:12:00,39.7,24.9,29.77,West,267,0.0,1.0,55,0.00,,,0.00,WeatherCatV1.10B1784,2013-02-13 18:12:00,
2013-02-13 13:17:00,39.1,24.7,29.77,WSW,257,0.0,6.0,56,0.00,,,0.00,WeatherCatV1.10B1784,2013-02-13 18:17:00,
2013-02-13 13:22:00,38.8,24.5,29.77,WSW,257,1.0,1.0,56,0.00,,,0.00,WeatherCatV1.10B1784,2013-02-13 18:22:00,
2013-02-13 13:27:00,39.1,25.2,29.77,WSW,257,2.0,3.0,57,0.00,,,0.00,WeatherCatV1.10B1784,2013-02-13 18:27:00,
2013-02-13 13:33:00,39.0,24.7,29.77,WSW,251,0.0,4.0,56,0.00,,,0.00,WeatherCatV1.10B1784,2013-02-13 18:33:00,
2013-02-13 13:38:00,38.9,25.0,29.77,WSW,251,4.0,4.0,57,0.00,,,0.00,WeatherCatV1.10B1784,2013-02-13 18:38:00,
2013-02-13 13:43:00,39.1,24.7,29.77,WSW,247,0.0,6.0,56,0.00,,,0.00,WeatherCatV1.10B1784,2013-02-13 18:43:00,
2013-02-13 13:48:00,39.6,25.2,29.77,WSW,247,0.0,4.0,56,0.00,,,0.00,WeatherCatV1.10B1784,2013-02-13 18:48:00,
2013-02-13 13:53:00,40.0,25.6,29.76,WSW,249,2.0,6.0,56,0.00,,,0.00,WeatherCatV1.10B1784,2013-02-13 18:53:00,
2013-02-13 13:58:00,39.6,24.8,29.76,WSW,246,4.0,7.0,55,0.00,,,0.00,WeatherCatV1.10B1784,2013-02-13 18:58:00,
2013-02-13 14:03:00,38.9,24.6,29.76,WSW,248,0.0,3.0,56,0.00,,,0.00,WeatherCatV1.10B1784,2013-02-13 19:03:00,
2013-02-13 14:08:00,38.6,24.3,29.75,WSW,248,0.0,2.0,56,0.00,,,0.00,WeatherCatV1.10B1784,2013-02-13 19:08:00,
2013-02-13 14:13:00,38.3,24.4,29.75,WSW,250,0.0,1.0,57,0.00,,,0.00,WeatherCatV1.10B1784,2013-02-13 19:13:00,
2013-02-13 14:18:00,38.2,24.7,29.75,WSW,246,0.0,0.0,58,0.00,,,0.00,WeatherCatV1.10B1784,2013-02-13 19:18:00,
2013-02-13 14:23:00,38.2,23.9,29.75,WSW,245,0.0,7.0,56,0.00,,,0.00,WeatherCatV1.10B1784,2013-02-13 19:23:00,
2013-02-13 14:28:00,38.5,24.2,29.75,WSW,245,0.0,3.0,56,0.00,,,0.00,WeatherCatV1.10B1784,2013-02-13 19:28:00,
2013-02-13 14:33:00,39.0,24.2,29.74,WSW,245,0.0,1.0,55,0.00,,,0.00,WeatherCatV1.10B1784,2013-02-13 19:33:00,
2013-02-13 14:38:00,39.5,23.8,29.74,WSW,245,0.0,1.0,53,0.00,,,0.00,WeatherCatV1.10B1784,2013-02-13 19:38:00,
2013-02-13 14:43:00,40.2,24.5,29.74,WSW,245,2.0,2.0,53,0.00,,,0.00,WeatherCatV1.10B1784,2013-02-13 19:43:00,
2013-02-13 14:48:00,41.0,24.7,29.74,WSW,245,0.0,0.0,52,0.00,,,0.00,WeatherCatV1.10B1784,2013-02-13 19:48:00,
2013-02-13 14:53:00,41.9,24.6,29.74,WSW,248,2.0,3.0,50,0.00,,,0.00,WeatherCatV1.10B1784,2013-02-13 19:53:00,
2013-02-13 14:58:00,41.5,24.3,29.74,WSW,248,0.0,1.0,50,0.00,,,0.00,WeatherCatV1.10B1784,2013-02-13 19:58:00,
2013-02-13 15:03:00,42.0,24.7,29.73,WSW,248,2.0,3.0,50,0.00,,,0.00,WeatherCatV1.10B1784,2013-02-13 20:03:00,
2013-02-13 15:08:00,41.8,24.5,29.74,WSW,244,3.0,3.0,50,0.00,,,0.00,WeatherCatV1.10B1784,2013-02-13 20:08:00,
2013-02-13 15:13:00,41.4,24.6,29.73,WSW,245,2.0,2.0,51,0.00,,,0.00,WeatherCatV1.10B1784,2013-02-13 20:13:00,
2013-02-13 15:18:00,41.7,24.4,29.73,WSW,245,0.0,0.0,50,0.00,,,0.00,WeatherCatV1.10B1784,2013-02-13 20:18:00,
2013-02-13 15:23:00,41.5,24.3,29.73,WSW,245,0.0,2.0,50,0.00,,,0.00,WeatherCatV1.10B1784,2013-02-13 20:23:00,
2013-02-13 15:28:00,41.5,24.7,29.73,WSW,245,1.0,1.0,51,0.00,,,0.00,WeatherCatV1.10B1784,2013-02-13 20:28:00,
2013-02-13 15:33:00,42.1,24.8,29.72,WSW,245,0.0,3.0,50,0.00,,,0.00,WeatherCatV1.10B1784,2013-02-13 20:33:00,
2013-02-13 15:38:00,42.5,24.7,29.72,WSW,245,0.0,0.0,49,0.00,,,0.00,WeatherCatV1.10B1784,2013-02-13 20:38:00,
2013-02-13 15:43:00,41.8,23.6,29.72,WSW,245,0.0,1.0,48,0.00,,,0.00,WeatherCatV1.10B1784,2013-02-13 20:43:00,
2013-02-13 15:48:00,41.0,23.8,29.71,WSW,245,0.0,1.0,50,0.00,,,0.00,WeatherCatV1.10B1784,2013-02-13 20:48:00,
2013-02-13 15:53:00,41.3,24.1,29.72,WSW,245,0.0,0.0,50,0.00,,,0.00,WeatherCatV1.10B1784,2013-02-13 20:53:00,
2013-02-13 15:58:00,41.7,24.9,29.73,WSW,245,0.0,0.0,51,0.00,,,0.00,WeatherCatV1.10B1784,2013-02-13 20:58:00,
2013-02-13 16:03:00,42.1,23.8,29.72,WSW,245,0.0,0.0,48,0.00,,,0.00,WeatherCatV1.10B1784,2013-02-13 21:03:00,
2013-02-13 16:08:00,41.5,24.3,29.72,WSW,245,0.0,0.0,50,0.00,,,0.00,WeatherCatV1.10B1784,2013-02-13 21:08:00,
2013-02-13 16:13:00,41.2,24.0,29.72,WSW,245,0.0,0.0,50,0.00,,,0.00,WeatherCatV1.10B1784,2013-02-13 21:13:00,
2013-02-13 16:18:00,40.4,22.8,29.72,WSW,245,0.0,1.0,49,0.00,,,0.00,WeatherCatV1.10B1784,2013-02-13 21:18:00,
2013-02-13 16:23:00,40.1,23.0,29.72,WSW,245,0.0,0.0,50,0.00,,,0.00,WeatherCatV1.10B1784,2013-02-13 21:23:00,
2013-02-13 16:28:00,39.9,24.2,29.72,WSW,245,0.0,0.0,53,0.00,,,0.00,WeatherCatV1.10B1784,2013-02-13 21:28:00,
2013-02-13 16:33:00,40.4,24.2,29.72,WSW,245,0.0,0.0,52,0.00,,,0.00,WeatherCatV1.10B1784,2013-02-13 21:33:00,
2013-02-13 16:38:00,40.0,23.8,29.72,WSW,245,0.0,1.0,52,0.00,,,0.00,WeatherCatV1.10B1784,2013-02-13 21:38:00,
2013-02-13 16:43:00,39.2,22.6,29.72,WSW,245,0.0,0.0,51,0.00,,,0.00,WeatherCatV1.10B1784,2013-02-13 21:43:00,
2013-02-13 16:48:00,38.7,23.1,29.72,WSW,245,0.0,0.0,53,0.00,,,0.00,WeatherCatV1.10B1784,2013-02-13 21:48:00,
2013-02-13 16:53:00,38.4,23.2,29.72,WSW,245,0.0,0.0,54,0.00,,,0.00,WeatherCatV1.10B1784,2013-02-13 21:53:00,
2013-02-13 16:58:00,38.0,22.9,29.72,WSW,245,0.0,0.0,54,0.00,,,0.00,WeatherCatV1.10B1784,2013-02-13 21:58:00,
2013-02-13 17:03:00,37.6,22.9,29.72,WSW,245,0.0,0.0,55,0.00,,,0.00,WeatherCatV1.10B1784,2013-02-13 22:03:00,
2013-02-13 17:08:00,37.1,22.9,29.72,WSW,245,0.0,0.0,56,0.00,,,0.00,WeatherCatV1.10B1784,2013-02-13 22:08:00,
2013-02-13 17:13:00,36.6,22.8,29.72,WSW,245,0.0,0.0,57,0.00,,,0.00,WeatherCatV1.10B1784,2013-02-13 22:13:00,
2013-02-13 17:18:00,36.2,23.3,29.72,WSW,245,0.0,0.0,59,0.00,,,0.00,WeatherCatV1.10B1784,2013-02-13 22:18:00,
2013-02-13 17:23:00,35.3,23.6,29.72,WSW,245,0.0,0.0,62,0.00,,,0.00,WeatherCatV1.10B1784,2013-02-13 22:23:00,
2013-02-13 17:28:00,34.6,22.9,29.71,WSW,245,0.0,0.0,62,0.00,,,0.00,WeatherCatV1.10B1784,2013-02-13 22:28:00,
2013-02-13 17:33:00,34.1,23.2,29.71,WSW,245,0.0,0.0,64,0.00,,,0.00,WeatherCatV1.10B1784,2013-02-13 22:33:00,
2013-02-13 17:38:00,33.6,23.8,29.71,WSW,245,0.0,0.0,67,0.00,,,0.00,WeatherCatV1.10B1784,2013-02-13 22:38:00,
2013-02-13 17:43:00,33.0,23.6,29.71,WSW,245,0.0,0.0,68,0.00,,,0.00,WeatherCatV1.10B1784,2013-02-13 22:43:00,
2013-02-13 17:48:00,32.6,22.9,29.71,WSW,245,0.0,0.0,67,0.00,,,0.00,WeatherCatV1.10B1784,2013-02-13 22:48:00,
2013-02-13 17:53:00,32.3,23.3,29.71,WSW,245,0.0,0.0,69,0.00,,,0.00,WeatherCatV1.10B1784,2013-02-13 22:53:00,
2013-02-13 17:58:00,32.2,22.5,29.71,WSW,245,0.0,0.0,67,0.00,,,0.00,WeatherCatV1.10B1784,2013-02-13 22:58:00,
2013-02-13 18:03:00,32.0,23.0,29.71,WSW,245,0.0,0.0,69,0.00,,,0.00,WeatherCatV1.10B1784,2013-02-13 23:03:00,
2013-02-13 18:08:00,31.5,22.9,29.71,WSW,245,0.0,0.0,70,0.00,,,0.00,WeatherCatV1.10B1784,2013-02-13 23:08:00,
2013-02-13 18:13:00,31.7,23.1,29.71,WSW,245,0.0,0.0,70,0.00,,,0.00,WeatherCatV1.10B1784,2013-02-13 23:13:00,
2013-02-13 18:18:00,31.3,23.7,29.71,WSW,245,0.0,0.0,73,0.00,,,0.00,WeatherCatV1.10B1784,2013-02-13 23:18:00,
2013-02-13 18:23:00,31.1,22.8,29.72,WSW,245,0.0,0.0,71,0.00,,,0.00,WeatherCatV1.10B1784,2013-02-13 23:23:00,
2013-02-13 18:28:00,31.1,23.5,29.72,WSW,245,0.0,0.0,73,0.00,,,0.00,WeatherCatV1.10B1784,2013-02-13 23:28:00,
2013-02-13 18:33:00,31.0,22.7,29.72,WSW,245,0.0,0.0,71,0.00,,,0.00,WeatherCatV1.10B1784,2013-02-13 23:33:00,
2013-02-13 18:38:00,31.2,23.2,29.71,WSW,245,0.0,0.0,72,0.00,,,0.00,WeatherCatV1.10B1784,2013-02-13 23:38:00,
2013-02-13 18:43:00,31.2,23.2,29.71,WSW,245,0.0,0.0,72,0.00,,,0.00,WeatherCatV1.10B1784,2013-02-13 23:43:00,
2013-02-13 18:48:00,31.1,23.1,29.71,WSW,245,0.0,0.0,72,0.00,,,0.00,WeatherCatV1.10B1784,2013-02-13 23:48:00,
2013-02-13 18:53:00,30.8,23.8,29.71,WSW,245,0.0,0.0,75,0.00,,,0.00,WeatherCatV1.10B1784,2013-02-13 23:53:00,
2013-02-13 18:58:00,30.6,23.6,29.72,WSW,245,0.0,0.0,75,0.00,,,0.00,WeatherCatV1.10B1784,2013-02-13 23:58:00,
2013-02-13 19:03:00,30.5,23.5,29.72,WSW,245,0.0,0.0,75,0.00,,,0.00,WeatherCatV1.10B1784,2013-02-14 00:03:00,
2013-02-13 19:08:00,30.8,23.2,29.71,WSW,245,0.0,0.0,73,0.00,,,0.00,WeatherCatV1.10B1784,2013-02-14 00:08:00,
2013-02-13 19:13:00,31.1,23.1,29.71,WSW,245,0.0,0.0,72,0.00,,,0.00,WeatherCatV1.10B1784,2013-02-14 00:13:00,
2013-02-13 19:18:00,31.4,23.8,29.72,WSW,245,0.0,0.0,73,0.00,,,0.00,WeatherCatV1.10B1784,2013-02-14 00:18:00,
2013-02-13 19:23:00,31.3,23.0,29.72,WSW,245,0.0,0.0,71,0.00,,,0.00,WeatherCatV1.10B1784,2013-02-14 00:23:00,
2013-02-13 19:28:00,31.5,22.9,29.71,WSW,245,0.0,0.0,70,0.00,,,0.00,WeatherCatV1.10B1784,2013-02-14 00:28:00,
2013-02-13 19:33:00,31.5,23.2,29.71,WSW,245,0.0,0.0,71,0.00,,,0.00,WeatherCatV1.10B1784,2013-02-14 00:33:00,
2013-02-13 19:38:00,31.5,23.2,29.70,WSW,245,0.0,0.0,71,0.00,,,0.00,WeatherCatV1.10B1784,2013-02-14 00:38:00,
2013-02-13 19:43:00,31.3,23.3,29.70,WSW,245,0.0,0.0,72,0.00,,,0.00,WeatherCatV1.10B1784,2013-02-14 00:43:00,
2013-02-13 19:48:00,31.1,23.5,29.70,WSW,245,0.0,0.0,73,0.00,,,0.00,WeatherCatV1.10B1784,2013-02-14 00:48:00,
2013-02-13 19:53:00,31.2,23.2,29.71,WSW,245,0.0,0.0,72,0.00,,,0.00,WeatherCatV1.10B1784,2013-02-14 00:53:00,
2013-02-13 19:58:00,31.3,23.7,29.71,WSW,245,0.0,0.0,73,0.00,,,0.00,WeatherCatV1.10B1784,2013-02-14 00:58:00,
2013-02-13 20:03:00,31.4,23.1,29.72,WSW,245,0.0,0.0,71,0.00,,,0.00,WeatherCatV1.10B1784,2013-02-14 01:03:00,
2013-02-13 20:08:00,31.6,23.0,29.72,WSW,245,0.0,0.0,70,0.00,,,0.00,WeatherCatV1.10B1784,2013-02-14 01:08:00,
2013-02-13 20:13:00,32.0,23.0,29.72,WSW,245,0.0,0.0,69,0.00,,,0.00,WeatherCatV1.10B1784,2013-02-14 01:13:00,
2013-02-13 20:18:00,32.2,22.8,29.72,WSW,245,0.0,0.0,68,0.00,,,0.00,WeatherCatV1.10B1784,2013-02-14 01:18:00,
2013-02-13 20:23:00,32.4,23.0,29.72,WSW,245,0.0,0.0,68,0.00,,,0.00,WeatherCatV1.10B1784,2013-02-14 01:23:00,
2013-02-13 20:28:00,32.4,23.0,29.72,WSW,245,0.0,0.0,68,0.00,,,0.00,WeatherCatV1.10B1784,2013-02-14 01:28:00,
2013-02-13 20:33:00,32.0,23.3,29.71,WSW,245,0.0,0.0,70,0.00,,,0.00,WeatherCatV1.10B1784,2013-02-14 01:33:00,
2013-02-13 20:38:00,31.6,23.6,29.71,WSW,245,0.0,0.0,72,0.00,,,0.00,WeatherCatV1.10B1784,2013-02-14 01:38:00,
2013-02-13 20:43:00,31.4,23.4,29.71,WSW,245,0.0,0.0,72,0.00,,,0.00,WeatherCatV1.10B1784,2013-02-14 01:43:00,
2013-02-13 20:48:00,31.1,23.5,29.71,WSW,245,0.0,0.0,73,0.00,,,0.00,WeatherCatV1.10B1784,2013-02-14 01:48:00,
2013-02-13 20:53:00,30.9,23.3,29.71,WSW,245,0.0,0.0,73,0.00,,,0.00,WeatherCatV1.10B1784,2013-02-14 01:53:00,
2013-02-13 20:58:00,30.8,23.5,29.70,WSW,245,0.0,0.0,74,0.00,,,0.00,WeatherCatV1.10B1784,2013-02-14 01:58:00,
2013-02-13 21:03:00,30.7,23.1,29.70,WSW,245,0.0,0.0,73,0.00,,,0.00,WeatherCatV1.10B1784,2013-02-14 02:03:00,
2013-02-13 21:08:00,30.8,23.2,29.70,WSW,245,0.0,0.0,73,0.00,,,0.00,WeatherCatV1.10B1784,2013-02-14 02:08:00,
2013-02-13 21:13:00,31.1,22.8,29.70,WSW,245,0.0,0.0,71,0.00,,,0.00,WeatherCatV1.10B1784,2013-02-14 02:13:00,
2013-02-13 21:18:00,31.6,22.6,29.71,WSW,245,0.0,0.0,69,0.00,,,0.00,WeatherCatV1.10B1784,2013-02-14 02:18:00,
2013-02-13 21:23:00,32.0,22.7,29.71,WSW,245,0.0,0.0,68,0.00,,,0.00,WeatherCatV1.10B1784,2013-02-14 02:23:00,
2013-02-13 21:28:00,32.1,22.4,29.71,WSW,245,0.0,0.0,67,0.00,,,0.00,WeatherCatV1.10B1784,2013-02-14 02:28:00,
2013-02-13 21:33:00,32.2,22.8,29.71,WSW,245,0.0,0.0,68,0.00,,,0.00,WeatherCatV1.10B1784,2013-02-14 02:33:00,
2013-02-13 21:38:00,32.3,23.3,29.71,WSW,245,0.0,0.0,69,0.00,,,0.00,WeatherCatV1.10B1784,2013-02-14 02:38:00,
2013-02-13 21:43:00,32.1,23.4,29.70,WSW,245,0.0,0.0,70,0.00,,,0.00,WeatherCatV1.10B1784,2013-02-14 02:43:00,
2013-02-13 21:48:00,32.1,23.1,29.70,WSW,245,0.0,0.0,69,0.00,,,0.00,WeatherCatV1.10B1784,2013-02-14 02:48:00,
2013-02-13 21:53:00,32.1,23.4,29.70,WSW,245,0.0,0.0,70,0.00,,,0.00,WeatherCatV1.10B1784,2013-02-14 02:53:00,
2013-02-13 21:58:00,32.0,23.3,29.70,WSW,245,0.0,0.0,70,0.00,,,0.00,WeatherCatV1.10B1784,2013-02-14 02:58:00,
2013-02-13 22:03:00,32.0,23.3,29.70,WSW,245,0.0,0.0,70,0.00,,,0.00,WeatherCatV1.10B1784,2013-02-14 03:03:00,
2013-02-13 22:08:00,32.1,23.1,29.70,WSW,245,0.0,1.0,69,0.00,,,0.00,WeatherCatV1.10B1784,2013-02-14 03:08:00,
2013-02-13 22:13:00,32.3,23.3,29.70,WSW,245,0.0,0.0,69,0.00,,,0.00,WeatherCatV1.10B1784,2013-02-14 03:13:00,
2013-02-13 22:18:00,32.2,23.5,29.70,WSW,245,0.0,0.0,70,0.00,,,0.00,WeatherCatV1.10B1784,2013-02-14 03:18:00,
2013-02-13 22:23:00,32.1,23.4,29.70,WSW,245,0.0,0.0,70,0.00,,,0.00,WeatherCatV1.10B1784,2013-02-14 03:23:00,
2013-02-13 22:28:00,32.2,22.8,29.70,WSW,245,0.0,0.0,68,0.00,,,0.00,WeatherCatV1.10B1784,2013-02-14 03:28:00,
2013-02-13 22:33:00,32.3,22.6,29.70,WSW,245,0.0,0.0,67,0.00,,,0.00,WeatherCatV1.10B1784,2013-02-14 03:33:00,
2013-02-13 22:38:00,32.5,22.8,29.69,WSW,245,0.0,0.0,67,0.00,,,0.00,WeatherCatV1.10B1784,2013-02-14 03:38:00,
2013-02-13 22:43:00,32.6,23.2,29.70,WSW,245,0.0,0.0,68,0.00,,,0.00,WeatherCatV1.10B1784,2013-02-14 03:43:00,
2013-02-13 22:48:00,32.5,23.1,29.69,WSW,245,0.0,0.0,68,0.00,,,0.00,WeatherCatV1.10B1784,2013-02-14 03:48:00,
2013-02-13 22:53:00,32.3,22.9,29.69,WSW,245,0.0,0.0,68,0.00,,,0.00,WeatherCatV1.10B1784,2013-02-14 03:53:00,
2013-02-13 22:58:00,32.4,22.7,29.69,WSW,245,0.0,0.0,67,0.00,,,0.00,WeatherCatV1.10B1784,2013-02-14 03:58:00,
2013-02-13 23:03:00,32.4,23.0,29.69,WSW,245,0.0,0.0,68,0.00,,,0.00,WeatherCatV1.10B1784,2013-02-14 04:03:00,
2013-02-13 23:08:00,32.4,23.0,29.69,WSW,245,0.0,0.0,68,0.00,,,0.00,WeatherCatV1.10B1784,2013-02-14 04:08:00,
2013-02-13 23:13:00,32.4,23.0,29.70,WSW,245,0.0,0.0,68,0.00,,,0.00,WeatherCatV1.10B1784,2013-02-14 04:13:00,
2013-02-13 23:18:00,32.3,23.3,29.70,WSW,245,0.0,0.0,69,0.00,,,0.00,WeatherCatV1.10B1784,2013-02-14 04:18:00,
2013-02-13 23:23:00,32.4,22.7,29.70,WSW,245,0.0,0.0,67,0.00,,,0.00,WeatherCatV1.10B1784,2013-02-14 04:23:00,
2013-02-13 23:28:00,32.3,22.6,29.70,WSW,245,0.0,0.0,67,0.00,,,0.00,WeatherCatV1.10B1784,2013-02-14 04:28:00,
2013-02-13 23:33:00,32.4,23.0,29.70,WSW,245,0.0,0.0,68,0.00,,,0.00,WeatherCatV1.10B1784,2013-02-14 04:33:00,
2013-02-13 23:38:00,32.5,22.4,29.69,WSW,245,0.0,0.0,66,0.00,,,0.00,WeatherCatV1.10B1784,2013-02-14 04:38:00,
2013-02-13 23:43:00,32.7,22.6,29.69,WSW,245,0.0,0.0,66,0.00,,,0.00,WeatherCatV1.10B1784,2013-02-14 04:43:00,
2013-02-13 23:48:00,32.8,22.3,29.69,WSW,245,0.0,0.0,65,0.00,,,0.00,WeatherCatV1.10B1784,2013-02-14 04:48:00,
2013-02-13 23:53:00,32.9,22.8,29.68,WSW,245,3.0,3.0,66,0.00,,,0.00,WeatherCatV1.10B1784,2013-02-14 04:53:00,
2013-02-13 23:58:00,33.0,22.9,29.67,WSW,245,1.0,3.0,66,0.00,,,0.00,WeatherCatV1.10B1784,2013-02-14 04:58:00,